[[{"header":{"parameterUnit":"m.s-1","parameterCategory":1,"la1":30.2991,"la2":30.254,"lo1":-89.0895,"lo2":-89.0444,"dy":0.0017,"dx":0.0017,"nx":28,"ny":28,"refTime":"2025-01-24T03:00:00:Z","depth":0,"parameterNumber":2,"parameterNumberName":"U-component_of_WINDS"},"data":[0,0,0,0,0,0,0,0,0,0,0,0,0,0,0,0,0,0,0,0,0,0,0,0,0,0,0,0,0,0,0,0,0,0,0,0,0,0,0,0,0,0,0,0,0,0,0,0,0,0,0,0,0,0,0,0,0,0,-2.0182,-2.0182,0,-2.0099,-2.0098,-2.0097,-2.004,-2.004,-2.004,-2.0039,-1.9954,-1.9953,-1.9951,0,0,0,0,0,0,0,0,0,0,0,0,0,-2.029,-2.0289,-2.0183,-2.0181,-2.018,-2.0099,-2.0098,-2.0097,-2.0041,-2.004,-2.004,-2.0039,-1.9955,-1.9953,-1.995,0,0,0,0,0,0,0,0,0,0,0,0,0,-2.0229,-2.0288,-2.0183,-2.0143,-2.0138,-2.0099,-2.0098,-2.0097,-2.0041,-2.004,-2.0039,-2.0039,-1.9956,-1.9953,-1.995,-1.9945,0,0,-1.9942,-1.994,0,0,0,0,0,0,0,0,-2.0233,-2.0225,-2.0149,-2.0145,-2.014,-2.0079,-2.0105,-2.0046,-2.0041,-2.0078,-2.0039,-2.0039,-1.9997,-1.999,-1.9976,-1.9941,-1.9937,-1.9941,-1.994,-1.9938,-1.9938,0,0,0,0,0,0,0,-2.0237,-2.0228,-2.0149,-2.0148,-2.0143,-2.0128,-2.0118,-2.0093,-2.0042,-2.0074,-2.007,-2.0061,-1.9994,-1.9979,-1.9974,-1.9936,-1.9941,-1.9939,-1.9937,-1.9936,-1.9887,-1.9888,0,0,0,0,0,0,-2.0248,-2.0232,-2.0152,-2.0147,-2.0186,-2.0126,-2.0116,-2.01,-2.0042,-2.0032,-2.0062,-2.0059,-1.9984,-1.9977,-1.997,-1.9957,-1.9938,-1.9936,-1.9934,-1.9887,-1.9887,-1.9888,0,0,0,0,0,0,-2.025,-2.0241,-2.0155,-2.0188,-2.0176,-2.0125,-2.0107,-2.0098,-2.0083,-2.0032,-2.0022,-2.0056,-1.9983,-1.9974,-1.995,-1.9953,-1.9934,-1.9932,-1.9886,-1.9887,-1.9887,-1.9933,0,0,0,0,0,0,-2.0254,-2.0242,-2.0241,-2.0189,-2.0175,-2.0138,-2.0108,-2.0097,-2.0078,-2.0074,-2.0024,-2.0015,-1.9982,-1.9955,-1.9948,-1.9949,-1.993,-1.9886,-1.9887,-1.9887,-1.9931,-1.9935,-1.9938,0,0,0,0,0,-2.0258,-2.0258,-2.0241,-2.0232,-2.0172,-2.0138,-2.013,-2.0092,-2.0079,-2.0076,-2.0042,-2.0017,-1.9954,-1.9953,-1.9944,-1.9945,-1.9885,-1.9886,-1.9887,-1.9929,-1.9934,-1.9938,0,0,0,0,0,0,-2.0313,-2.0251,-2.0231,-2.0215,-2.0182,-2.0129,-2.0124,-2.0099,-2.007,-2.0067,-2.002,-2.001,-1.999,-1.9965,-1.9965,-1.9934,-1.9917,-1.9916,-1.9951,-1.9956,-1.9959,-1.9965,-1.9927,0,0,0,0,0,-2.0323,-2.0302,-2.0248,-2.0239,-2.0223,-2.0177,-2.0161,-2.0134,-2.0098,-2.0084,-2.0049,-2.0015,-1.9987,-1.997,-1.9942,-1.9927,-1.9913,-1.9922,-1.9926,-1.993,-1.9929,-1.9915,-1.9918,-1.9891,-1.9891,-1.9891,0,0,-2.0344,-2.0307,-2.0297,-2.0249,-2.022,-2.0197,-2.0166,-2.0144,-2.0126,-2.0081,-2.0055,-2.0028,-1.9987,-1.9966,-1.9955,-1.9945,-1.9933,-1.9931,-1.9934,-1.9931,-1.9916,-1.9919,-1.9921,-1.9891,-1.9891,-1.9891,0,0,-2.037,-2.0342,-2.0328,-2.03,-2.0256,-2.0225,-2.0222,-2.0171,-2.0151,-2.0124,-2.0088,-2.0066,-2.0021,-1.9991,-1.9971,-1.9981,-1.9955,-1.9973,-1.9993,-1.998,-1.9982,-1.9984,-1.9985,-1.9986,-1.9973,-1.9973,-1.9974,0,-2.0402,-2.0367,-2.0325,-2.0304,-2.0283,-2.0239,-2.0224,-2.0199,-2.0149,-2.0134,-2.0123,-2.0062,-2.0032,-2.0001,-2.0003,-1.9989,-1.9982,-1.9979,-1.9985,-1.9986,-1.9987,-1.9988,-1.9988,-1.9976,-1.9975,-1.9975,-1.9975,0,-2.0406,-2.0382,-2.0377,-2.0328,-2.0306,-2.0288,-2.0242,-2.0225,-2.0199,-2.0168,-2.0139,-2.01,-2.0062,-2.0053,-2.0028,-2.0018,-2.0012,-1.9994,-1.9975,-1.9993,-1.9992,-1.9992,-1.9979,-1.9978,-1.9977,-1.9977,0,0,-2.0466,-2.0392,-2.039,-2.0366,-2.0313,-2.0293,-2.0272,-2.0234,-2.0218,-2.0185,-2.0164,-2.0124,-2.0105,-2.0082,-2.0053,-2.0042,-2.0048,-2.0024,-2.0022,-2.0028,-2.0031,-2.0044,-2.0045,-2.0031,-2.0031,-2.0031,-2.0034,0,-2.0482,-2.0443,-2.0403,-2.0377,-2.0352,-2.0309,-2.029,-2.0255,-2.0225,-2.0198,-2.0165,-2.0136,-2.0115,-2.01,-2.0087,-2.0051,-2.0048,-2.005,-2.001,-2.0009,-2.002,-2.0045,-2.006,-2.0065,-2.0033,-2.0033,-2.0033,0,-2.0497,-2.0463,-2.0434,-2.038,-2.0368,-2.0353,-2.0312,-2.0288,-2.0246,-2.0224,-2.0196,-2.0164,-2.0138,-2.0122,-2.0083,-2.0085,-2.0066,-2.0045,-2.0044,-2.0039,-2.0022,-2.0038,-2.0066,-2.0066,-2.0033,-2.0033,-2.0033,0,-2.054,-2.0487,-2.0462,-2.0443,-2.0381,-2.037,-2.0343,-2.03,-2.0278,-2.0243,-2.0227,-2.0189,-2.0168,-2.0139,-2.0097,-2.0089,-2.0061,-2.0043,-2.0041,-2.0042,-2.0037,-2.0038,-2.006,-2.0027,-2.0027,-2.0027,-2.0027,0,-2.0561,-2.0545,-2.048,-2.0465,-2.0444,-2.0398,-2.0378,-2.0347,-2.0309,-2.0285,-2.0246,-2.0224,-2.0171,-2.0142,-2.011,-2.0081,-2.0072,-2.0052,-2.0044,-2.0055,-2.0057,-2.0042,-2.004,-2.0027,-2.0027,-2.0027,-2.0027,0,-2.0606,-2.0562,-2.0532,-2.0474,-2.0459,-2.0446,-2.0396,-2.0378,-2.0344,-2.0315,-2.0305,-2.0252,-2.0216,-2.0171,-2.0122,-2.0099,-2.0073,-2.0061,-2.0087,-2.0082,-2.0082,-2.0082,-2.0094,-2.0092,-2.0062,-2.0063,-2.0063,0,-2.0621,-2.0607,-2.0547,-2.0528,-2.0503,-2.0473,-2.045,-2.0403,-2.038,-2.0329,-2.0317,-2.0277,-2.0244,-2.0188,-2.0144,-2.0105,-2.009,-2.0097,-2.0084,-2.0095,-2.0087,-2.0088,-2.0085,-2.01,-2.0101,-2.0101,-2.0101,0,-2.0653,-2.0631,-2.06,-2.0559,-2.0532,-2.0499,-2.0463,-2.045,-2.0395,-2.0371,-2.0333,-2.0307,-2.0254,-2.0215,-2.0169,-2.014,-2.0111,-2.0106,-2.0103,-2.0114,-2.0129,-2.0119,-2.0094,-2.0106,-2.0105,-2.0105,-2.0105,-2.0105,-2.0681,-2.0666,-2.062,-2.0585,-2.0553,-2.052,-2.0499,-2.0462,-2.043,-2.0384,-2.0358,-2.032,-2.0274,-2.021,-2.0182,-2.015,-2.014,-2.0137,-2.0135,-2.0135,-2.0137,-2.0135,-2.0142,-2.0142,-2.0142,-2.0142,-2.0142,0,-2.0709,-2.0677,-2.0645,-2.0595,-2.0567,-2.0542,-2.05,-2.0478,-2.0445,-2.0406,-2.0373,-2.0328,-2.0288,-2.0241,-2.0198,-2.0182,-2.0167,-2.0172,-2.0172,-2.0165,-2.015,-2.0156,-2.0184,-2.0184,-2.0184,-2.0184,-2.0184,-2.0184,-2.0719,-2.069,-2.0663,-2.0616,-2.0584,-2.0547,-2.0525,-2.0493,-2.0461,-2.0413,-2.038,-2.0349,-2.0305,-2.0258,-2.022,-2.0206,-2.0192,-2.02,-2.0183,-2.017,-2.0167,-2.0163,-2.0168,-2.0198,-2.0198,-2.02,-2.02,-2.02]},{"header":{"parameterUnit":"m.s-1","parameterCategory":1,"la1":30.2991,"la2":30.254,"lo1":-89.0895,"lo2":-89.0444,"dy":0.0017,"dx":0.0017,"nx":28,"ny":28,"refTime":"2025-01-24T03:00:00:Z","depth":0,"parameterNumber":3,"parameterNumberName":"V-component_of_WINDS"},"data":[0,0,0,0,0,0,0,0,0,0,0,0,0,0,0,0,0,0,0,0,0,0,0,0,0,0,0,0,0,0,0,0,0,0,0,0,0,0,0,0,0,0,0,0,0,0,0,0,0,0,0,0,0,0,0,0,0,0,0.5102,0.5103,0,0.5162,0.5163,0.5164,0.5085,0.5082,0.508,0.5077,0.5146,0.515,0.5155,0,0,0,0,0,0,0,0,0,0,0,0,0,0.4928,0.4932,0.5102,0.5103,0.5103,0.5162,0.5163,0.5164,0.5086,0.5082,0.5079,0.5076,0.5144,0.515,0.5155,0,0,0,0,0,0,0,0,0,0,0,0,0,0.4998,0.4933,0.5102,0.5071,0.5069,0.5162,0.5163,0.5164,0.5086,0.5082,0.5078,0.5074,0.5143,0.5149,0.5156,0.5284,0,0,0.5177,0.5179,0,0,0,0,0,0,0,0,0.4994,0.5004,0.5075,0.5074,0.5071,0.5112,0.5127,0.5204,0.5088,0.508,0.5077,0.5072,0.5139,0.5145,0.5166,0.5287,0.529,0.5177,0.5181,0.5184,0.5186,0,0,0,0,0,0,0,0.4989,0.5001,0.5126,0.5076,0.5074,0.5058,0.5063,0.5141,0.5133,0.508,0.5075,0.5083,0.5137,0.516,0.5167,0.5291,0.5177,0.5183,0.5187,0.519,0.5527,0.5531,0,0,0,0,0,0,0.4987,0.4998,0.5124,0.5128,0.5021,0.5064,0.507,0.5103,0.5132,0.5132,0.5086,0.5079,0.515,0.516,0.5169,0.5326,0.5184,0.519,0.5194,0.5522,0.5528,0.5533,0,0,0,0,0,0,0.4984,0.4999,0.5122,0.5061,0.5076,0.5072,0.511,0.5107,0.513,0.5136,0.5135,0.5111,0.5147,0.516,0.5257,0.5327,0.5193,0.52,0.5516,0.5523,0.553,0.5636,0,0,0,0,0,0,0.4979,0.4998,0.5044,0.5063,0.5079,0.5205,0.5114,0.5111,0.5141,0.5132,0.5159,0.516,0.5145,0.5247,0.5264,0.5334,0.5205,0.551,0.5519,0.5528,0.5627,0.5646,0.5663,0,0,0,0,0,0.4973,0.5072,0.5047,0.5062,0.5136,0.5209,0.5219,0.5198,0.5146,0.5195,0.52,0.5159,0.5316,0.5258,0.5276,0.5349,0.5505,0.5517,0.5527,0.5618,0.5642,0.5663,0,0,0,0,0,0,0.5062,0.5073,0.5046,0.5153,0.5181,0.5196,0.5255,0.5223,0.5268,0.5258,0.5232,0.5239,0.5344,0.5355,0.529,0.5477,0.5403,0.5418,0.5466,0.5489,0.5507,0.5503,0.5211,0,0,0,0,0,0.5094,0.515,0.5157,0.5252,0.5267,0.5259,0.529,0.5272,0.5301,0.5312,0.5324,0.5356,0.5413,0.5451,0.5503,0.5627,0.5636,0.5687,0.5705,0.572,0.5735,0.5808,0.5832,0.5569,0.5569,0.5569,0,0,0.5161,0.5174,0.5211,0.527,0.5289,0.5352,0.5269,0.5337,0.5385,0.5323,0.5416,0.5427,0.5461,0.5573,0.5623,0.5586,0.5809,0.5734,0.5746,0.5753,0.5821,0.5846,0.5869,0.5576,0.5575,0.5574,0,0,0.5316,0.5329,0.5411,0.5433,0.5463,0.5458,0.5478,0.5499,0.5503,0.5595,0.5553,0.561,0.5707,0.5735,0.5762,0.5932,0.5898,0.595,0.6047,0.6118,0.6139,0.6157,0.6223,0.6247,0.5964,0.5964,0.5964,0,0.5396,0.5485,0.5458,0.5531,0.5561,0.5507,0.5593,0.5616,0.5662,0.5686,0.5643,0.5767,0.5786,0.5907,0.595,0.5971,0.5998,0.5948,0.6137,0.6156,0.6172,0.6235,0.626,0.597,0.597,0.5969,0.5968,0,0.5585,0.5648,0.5711,0.5758,0.5794,0.5873,0.5862,0.5903,0.5883,0.5884,0.5982,0.6003,0.6061,0.6088,0.6068,0.6209,0.6186,0.614,0.6066,0.6205,0.6264,0.6287,0.5979,0.5977,0.5975,0.5974,0,0,0.5797,0.5829,0.5854,0.5876,0.5907,0.5957,0.6036,0.6092,0.613,0.6165,0.6234,0.6319,0.6279,0.631,0.6294,0.6356,0.6497,0.6304,0.6305,0.6343,0.6659,0.6696,0.6724,0.6473,0.6478,0.6481,0.6658,0,0.5955,0.6089,0.607,0.6201,0.6262,0.6214,0.6284,0.6313,0.6317,0.6372,0.6377,0.644,0.6379,0.6399,0.6458,0.6467,0.6561,0.6453,0.6543,0.6546,0.6539,0.6754,0.6792,0.6957,0.6681,0.6684,0.6687,0,0.6157,0.62,0.6337,0.6364,0.6389,0.6451,0.6504,0.6555,0.659,0.6589,0.6625,0.6599,0.6683,0.6605,0.6724,0.6652,0.6687,0.6698,0.6704,0.6715,0.6627,0.6775,0.7009,0.7036,0.6722,0.6719,0.6717,0,0.6305,0.6396,0.6492,0.6512,0.6543,0.659,0.6606,0.6635,0.6672,0.6718,0.6743,0.6799,0.6831,0.6878,0.687,0.6813,0.6994,0.6913,0.7,0.7001,0.7042,0.7041,0.7291,0.7059,0.7058,0.7058,0.7057,0,0.6486,0.6573,0.6559,0.6618,0.6716,0.6694,0.6793,0.6803,0.6831,0.6895,0.6856,0.6917,0.6901,0.6963,0.6958,0.7061,0.7074,0.708,0.7078,0.7086,0.7086,0.7111,0.7101,0.7064,0.7063,0.7062,0.7061,0,0.6668,0.6661,0.6763,0.6785,0.6793,0.6865,0.6886,0.6944,0.6945,0.7027,0.7045,0.7049,0.7121,0.7116,0.7197,0.7194,0.7323,0.7305,0.7311,0.7309,0.7398,0.7392,0.7676,0.7715,0.7454,0.7456,0.7458,0,0.6786,0.6852,0.6882,0.6921,0.694,0.7003,0.7041,0.7023,0.7065,0.7111,0.7165,0.7233,0.7286,0.7404,0.7417,0.748,0.7467,0.7563,0.7477,0.7484,0.7475,0.7473,0.7482,0.7581,0.7584,0.7586,0.7588,0,0.6998,0.6992,0.7046,0.7101,0.7147,0.7189,0.7228,0.7263,0.725,0.73,0.7372,0.7414,0.7497,0.7568,0.7629,0.7649,0.762,0.7615,0.7639,0.765,0.7652,0.7658,0.7362,0.7609,0.7607,0.7605,0.7604,0.7603,0.7154,0.7213,0.7245,0.7308,0.7335,0.7374,0.7431,0.744,0.7499,0.7565,0.7552,0.7635,0.7673,0.7752,0.7779,0.7846,0.7813,0.7847,0.7856,0.7866,0.7879,0.7638,0.7857,0.7856,0.7856,0.7855,0.7855,0,0.7369,0.7387,0.7445,0.7502,0.7553,0.7517,0.7559,0.7606,0.7679,0.7715,0.7769,0.7856,0.7925,0.7943,0.8011,0.8062,0.8051,0.8081,0.808,0.8086,0.7902,0.7876,0.809,0.809,0.809,0.809,0.809,0.809,0.7486,0.7586,0.7584,0.7699,0.7717,0.7797,0.7825,0.7863,0.7892,0.799,0.8046,0.8057,0.8089,0.8159,0.8223,0.8227,0.8256,0.8294,0.8293,0.8122,0.8098,0.8076,0.8052,0.8299,0.8299,0.8472,0.8474,0.8475]}]]